Total_Precipitation_Accumulation
2.17 2.83 3.52 4.08 4.75 5.52 6.11 5.97 5.35 4.86 4.29 3.79 3.28 3.20 3.02 2.72 2.45 2.19 1.91 1.86 1.81 1.64 1.71 1.64 1.73 1.47 1.50 1.56 1.57 1.76 1.88 1.79 1.79 2.13 2.24 1.85 1.53 1.57 1.58 1.59 1.84 1.91 1.91
2.14 2.90 3.51 3.71 3.71 4.00 4.26 3.76 3.57 3.56 3.16 2.85 2.80 2.73 2.61 2.33 2.11 1.97 1.91 1.55 1.55 1.54 1.49 1.72 1.63 1.54 1.64 1.60 1.60 1.74 1.84 1.78 1.83 2.05 2.30 2.07 2.07 1.85 1.39 1.63 1.77 1.81 2.04
2.26 2.76 2.91 2.92 2.81 2.79 2.78 2.56 2.50 2.81 2.74 2.69 2.63 2.62 2.61 2.49 2.23 1.90 1.85 1.53 1.37 1.39 1.53 1.56 1.64 1.70 1.42 1.60 1.69 1.63 1.68 1.75 1.70 1.73 2.05 2.09 2.11 1.87 1.48 1.44 1.51 1.70 2.00
2.23 2.21 1.80 1.67 1.82 1.91 2.01 2.26 2.35 2.49 2.40 2.46 2.28 2.09 1.92 1.82 1.73 1.67 1.71 1.70 1.50 1.39 1.35 1.42 1.65 1.74 1.50 1.68 1.35 1.44 1.67 1.76 1.63 1.65 1.58 1.60 1.77 1.91 1.86 1.60 1.48 1.58 1.74
1.30 1.13 0.96 1.00 1.24 1.50 1.73 2.12 2.22 2.28 2.22 2.15 2.13 2.12 2.00 1.99 1.88 1.81 1.96 1.94 1.91 1.71 1.41 1.43 1.63 1.75 1.68 1.69 1.56 1.77 1.59 1.50 1.49 1.55 1.60 1.62 1.57 1.48 1.72 1.81 1.72 1.64 1.47
0.67 0.71 0.77 0.95 1.19 1.36 1.45 1.67 1.85 2.04 2.10 2.11 2.16 2.10 2.07 2.14 2.00 1.85 1.77 1.73 1.79 1.74 1.64 1.62 1.81 1.81 1.75 1.75 1.67 1.71 1.63 1.61 1.60 1.52 1.48 1.72 1.71 1.58 1.70 1.60 1.60 1.59 1.30
0.55 0.71 0.79 0.97 1.07 1.17 1.19 1.30 1.40 1.62 1.80 1.91 1.98 2.00 2.04 2.09 1.92 1.82 1.70 1.65 1.56 1.52 1.64 1.73 1.92 1.83 1.77 1.71 1.74 1.73 1.74 1.78 1.80 1.67 1.50 1.49 1.57 1.59 1.60 1.60 1.42 1.39 1.30
0.44 0.49 0.59 0.64 0.74 0.90 1.13 1.30 1.27 1.28 1.33 1.40 1.60 1.76 1.80 1.84 1.79 1.86 1.67 1.54 1.45 1.45 1.60 1.70 1.66 1.64 1.64 1.56 1.73 1.64 1.60 1.65 1.69 1.61 1.84 1.75 1.50 1.60 1.63 1.72 1.87 1.77 1.64
0.48 0.41 0.42 0.54 0.62 0.66 0.79 1.01 1.05 1.05 1.07 1.15 1.29 1.39 1.45 1.58 1.76 1.72 1.53 1.36 1.38 1.41 1.45 1.43 1.45 1.50 1.53 1.63 1.78 1.70 1.64 1.70 1.59 1.60 1.94 1.84 1.56 1.53 1.59 1.68 1.91 2.19 1.98
0.42 0.47 0.48 0.51 0.58 0.59 0.70 0.85 0.98 1.01 1.01 1.06 1.12 1.08 1.24 1.35 1.51 1.55 1.50 1.39 1.31 1.40 1.45 1.43 1.45 1.45 1.40 1.48 1.66 1.59 1.66 1.74 1.71 1.73 1.80 1.80 1.69 1.68 1.73 1.79 1.92 2.15 2.15
0.42 0.52 0.50 0.51 0.48 0.48 0.59 0.72 0.89 0.96 0.92 0.97 1.02 1.11 1.20 1.36 1.41 1.40 1.43 1.41 1.39 1.45 1.48 1.50 1.55 1.51 1.48 1.52 1.61 1.52 1.64 1.71 1.82 1.81 1.76 1.76 1.92 1.95 1.82 1.86 1.91 2.09 2.29
0.47 0.52 0.54 0.50 0.43 0.48 0.58 0.68 0.83 0.91 0.93 0.96 1.05 1.15 1.22 1.30 1.38 1.33 1.40 1.52 1.53 1.56 1.56 1.59 1.68 1.60 1.63 1.67 1.56 1.55 1.63 1.70 1.73 1.82 1.99 1.99 2.03 1.98 1.88 1.95 1.98 2.11 2.37
0.51 0.52 0.62 0.57 0.49 0.50 0.57 0.70 0.93 1.09 1.17 1.15 1.18 1.18 1.15 1.23 1.36 1.39 1.42 1.51 1.60 1.66 1.64 1.59 1.61 1.69 1.79 1.79 1.61 1.55 1.53 1.47 1.45 1.58 1.85 2.10 2.36 2.24 2.09 2.04 2.01 2.07 2.19
0.46 0.56 0.66 0.71 0.76 0.75 0.78 0.92 1.08 1.09 1.16 1.08 1.10 1.17 1.20 1.33 1.47 1.50 1.51 1.53 1.54 1.57 1.65 1.69 1.67 1.67 1.67 1.64 1.62 1.65 1.62 1.53 1.42 1.45 1.55 1.68 1.91 2.12 2.26 2.10 1.94 1.99 2.12
0.58 0.63 0.72 0.79 0.86 0.93 0.91 0.91 0.99 1.00 1.09 1.35 1.44 1.49 1.47 1.50 1.62 1.70 1.67 1.70 1.69 1.65 1.80 1.87 1.86 1.82 1.76 1.62 1.73 1.84 1.70 1.67 1.58 1.55 1.52 1.42 1.53 1.69 1.85 1.84 2.03 2.10 2.09
0.68 0.75 0.80 0.84 0.87 0.92 1.02 1.07 1.08 1.10 1.27 1.66 1.87 1.95 1.94 1.94 1.95 1.97 1.98 2.03 2.01 2.11 2.15 2.06 2.03 1.97 1.75 1.86 1.86 1.83 1.80 1.85 1.80 1.73 1.66 1.52 1.43 1.45 1.53 1.59 1.73 1.92 1.98
0.64 0.71 0.84 0.94 0.93 0.92 0.98 1.09 1.19 1.27 1.40 1.66 1.82 1.88 1.93 1.99 2.11 2.16 2.19 2.21 2.24 2.27 2.30 2.35 2.28 2.17 2.19 2.15 1.85 1.78 1.76 1.83 1.85 1.92 1.94 1.62 1.37 1.48 1.45 1.53 1.55 1.53 1.63
0.70 0.81 0.83 0.94 1.03 1.08 1.16 1.32 1.50 1.66 1.72 1.85 2.04 2.13 2.09 2.10 2.16 2.17 2.10 2.09 2.21 2.23 2.17 2.11 2.02 1.99 1.97 1.95 1.69 1.58 1.48 1.58 1.64 1.65 1.67 1.66 1.52 1.42 1.44 1.45 1.37 1.29 1.30
0.85 1.02 1.16 1.15 1.21 1.33 1.45 1.53 1.72 1.87 1.92 1.96 2.14 2.27 2.36 2.42 2.33 2.22 2.22 2.22 2.21 2.07 1.96 1.88 1.85 1.82 1.83 1.83 1.64 1.52 1.38 1.40 1.41 1.42 1.45 1.49 1.42 1.41 1.31 1.23 1.22 1.19 1.13
0.89 1.00 1.21 1.35 1.37 1.51 1.62 1.66 1.73 1.81 1.89 1.91 1.99 2.15 2.24 2.42 2.54 2.48 2.45 2.37 2.26 2.14 2.05 1.97 1.97 1.94 1.96 2.03 1.78 1.63 1.50 1.53 1.53 1.60 1.58 1.52 1.38 1.33 1.17 1.08 1.11 1.06 0.99
0.89 0.93 1.01 1.17 1.27 1.36 1.45 1.59 1.67 1.67 1.76 1.79 1.78 1.94 2.15 2.31 2.42 2.54 2.56 2.56 2.46 2.32 2.11 1.94 1.90 1.90 1.97 2.08 1.92 1.74 1.51 1.53 1.64 1.69 1.72 1.66 1.53 1.24 1.10 0.98 0.93 0.91 0.98
0.93 0.95 1.01 1.09 1.18 1.32 1.52 1.68 1.72 1.71 1.72 1.78 1.87 1.99 2.17 2.26 2.26 2.31 2.37 2.46 2.43 2.38 2.29 2.03 1.80 1.73 1.71 1.70 1.70 1.52 1.39 1.39 1.47 1.60 1.73 1.74 1.62 1.37 1.19 1.03 0.91 0.89 0.85
1.00 0.95 1.01 1.14 1.31 1.49 1.71 1.91 1.91 1.92 1.92 1.95 2.00 2.07 2.17 2.24 2.28 2.26 2.25 2.24 2.18 2.06 1.99 1.88 1.79 1.74 1.73 1.66 1.51 1.29 1.15 1.15 1.21 1.35 1.65 1.75 1.63 1.45 1.22 1.08 0.99 0.87 0.76
1.04 1.01 1.01 1.08 1.29 1.42 1.53 1.73 1.84 1.87 1.98 1.94 1.87 1.83 1.84 1.88 1.94 1.99 2.00 2.01 1.96 1.90 1.83 1.76 1.75 1.70 1.67 1.56 1.46 1.35 1.17 1.11 1.14 1.16 1.33 1.43 1.40 1.26 1.16 1.06 0.94 0.82 0.78
1.09 1.09 1.11 1.15 1.21 1.28 1.33 1.43 1.57 1.68 1.86 1.95 1.93 1.92 1.89 1.84 1.85 1.91 1.97 1.85 1.79 1.80 1.71 1.61 1.70 1.71 1.58 1.53 1.48 1.39 1.28 1.20 1.23 1.20 1.23 1.32 1.39 1.38 1.32 1.29 1.18 1.08 1.00
1.08 1.14 1.21 1.25 1.24 1.25 1.34 1.44 1.57 1.76 1.96 1.97 1.89 1.89 1.94 1.96 1.94 1.92 1.97 2.00 1.81 1.75 1.64 1.58 1.56 1.54 1.46 1.37 1.23 1.17 1.12 1.03 0.99 0.91 0.99 1.17 1.34 1.47 1.50 1.52 1.45 1.32 1.22